SCP
-0 -0 -0 -0 0 0 0 0 0 0 0 0 0 0 0 0 0 0 0 -0 -0 0 -0 -0 0 0 0 -0 0 -0 -0 -0 -0 -0 -0 -0 -0 -0 -0 -0 -0 -0 -0
-0 -0 -0 0 0 0 0 0 0 0 0 0 0 0 0 0 0 0 0 0 -0 -0 -0 -0 -0 0 -0 -0 -0 -0 -0 -0 -0 -0 -0 -0 -0 -0 -0 -0 -0 -0 -0
-0 -0 -0 -0 0 0 0 0 0 0 0 0 0 0 0 0 -0 0 0 0 -0 -0 -0 -0 -0 -0 -0 -0 -0 -0 0 -0 -0 0 0 -0 0 0 -0 0 -0 -0 -0
-0 -0 0 0 0 0 0 0 0 0 0 0 0 0 0 -0 -0 0 0 -0 -0 -0 -0 -0 -0 0 0 0 0 0 -0 -0 -0 -0 -0 -0 -0 -0 -0 0 -0 -0 -0
-0 -0 -0 0 0 0 0 0 0 0 0 0 0 0 0 -0 0 0 -0 -0 -0 -0 -0 -0 0 0 0 0 0 0 0 0 -0 -0 -0 -0 0 0 -0 0 -0 -0 -0
-0 -0 -0 0 0 0 0 0 0 0 0 0 0 0 0 0 0 0 0 -0 -0 0 0 0 0 0 0 0 0 0 0 0 0 0 0 0 0 0 -0 -0 -0 -0 -0
-0 -0 -0 -0 -0 0 0 0 0 0 0 0 0 0 0 0 0 0 0 0 0 0 0 0 0 0 0 0 0 0 0 0 0 0 0 0 0 0 -0 -0 -0 -0 -0
-0 -0 -0 -0 -0 -0 0 0 0 0 0 0 0 0 0 0 0 0 0 0 0 0 0 0 0 0 0 0 0 0 0 0 0 0 0 0 0 0 0 -0 -0 -0 -0
-0 -0 0 -0 -0 0 0 0 0 0 0 0 0 0 0 0 0 0 0 0 0 0 0 0 0 0 0 0 0 0 0 0 0 0 0 0 0 0 0 0 -0 -0 -0
-0 -0 -0 0 0 0 0 0 0 0 0 0 0 0 0 0 0 0 0 0 0 0 0 0 0 0 0 0 -0 0 0 0 0 0 0 0 0 0 -0 0 -0 -0 -0
-0 0 -0 -0 0 0 0 0 0 0 0 0 0 0 0 0 0 0 0 0 0 -0 -0 0 0 0 0 0 0 0 0 0 0 0 0 -0 0 0 0 0 0 0 -0
0 0 -0 0 0 0 0 0 0 0 0 0 0 0 0 0 0 0 0 -0 -0 -0 0 0 0 -0 -0 0 0 0 0 0 0 0 0 0 0 0 0 0 0 0 -0
0 0 -0 0 0 0 0 0 0 0 0 0 0 0 0 0 0 0 0 0 0 0 0 0 0 0 0 0 0 0 0 0 0 0 0 0 0 0 0 0 0 0 0
-0 -0 -0 -0 0 -0 -0 -0 0 0 0 0 0 0 0 0 0 0 0 0 0 0 0 0 0 -0 0 0 0 0 0 0 0 0 0 0 0 0 0 0 0 0 0
0 -0 -0 0 0 0 0 -0 0 -0 -0 -0 -0 -0 0 -0 -0 -0 0 0 0 0 0 -0 -0 -0 -0 0 0 0 0 0 0 0 0 0 0 0 0 0 0 0 0
0 -0 -0 -0 -0 0 -0 -0 0 0 -0 -0 -0 -0 -0 -0 -0 -0 -0 -0 -0 -0 -0 -0 -0 0 0 0 0 -0 -0 -0 0 0 0 0 0 0 0 0 0 0 0
-0 0 0 0 0 0 0 0 -0 0 0 -0 -0 -0 -0 -0 -0 -0 0 -0 -0 -0 -0 -0 -0 -0 -0 0 0 0 -0 -0 -0 0 0 0 0 0 0 0 0 0 0
-0 -0 -0 0 0 0 0 0 -0 0 0 -0 -0 -0 -0 -0 0 0 -0 0 0 0 0 -0 -0 -0 -0 0 0 0 0 0 0 0 0 0 0 0 0 0 0 0 0
-0 -0 -0 -0 0 -0 -0 -0 -0 -0 -0 -0 0 0 0 0 -0 0 0 -0 0 -0 -0 -0 -0 -0 0 0 0 0 0 0 0 0 -0 0 0 0 0 0 0 0 0
-0 -0 0 0 0 0 -0 -0 -0 -0 -0 -0 -0 0 0 0 0 0 0 0 -0 -0 0 0 0 -0 -0 0 0 0 0 0 0 0 0 0 0 0 0 0 0 0 0
0 -0 -0 0 0 0 0 0 -0 0 -0 -0 -0 -0 -0 0 0 0 0 0 0 0 0 0 0 0 -0 -0 -0 -0 0 0 0 0 0 0 0 0 0 0 0 0 0
0 -0 0 0 0 0 0 0 0 0 0 -0 -0 -0 -0 -0 0 0 0 -0 0 0 0 0 0 0 0 0 0 0 0 0 0 0 0 0 0 0 0 0 0 0 0
-0 -0 0 0 0 0 0 0 0 0 0 -0 -0 -0 -0 -0 0 0 0 0 0 0 0 0 0 0 0 0 0 -0 -0 0 0 0 0 -0 -0 -0 0 0 0 0 0
0 0 0 0 0 0 0 0 0 0 0 0 0 -0 -0 -0 0 0 0 -0 -0 0 0 0 0 0 0 0 0 0 0 0 0 0 -0 -0 -0 -0 0 0 0 0 0
-0 0 0 0 0 0 0 0 0 0 0 -0 0 -0 -0 -0 -0 -0 0 0 0 0 0 0 0 0 0 0 0 0 0 0 0 0 0 0 0 0 0 0 0 0 0
-0 -0 0 0 0 0 0 0 0 0 0 -0 -0 -0 -0 -0 -0 -0 -0 0 0 0 0 0 0 0 0 0 0 0 0 0 0 0 0 0 0 0 0 0 0 0 0
Wind_Speed_500mb
42 40 40 44 45 40 32 32 30 28 25 22 20 18 17 16 14 16 15 14 14 13 12 12 11 10 9 9 10 13 13 12 13 14 13 13 16 14 17 17 15 17 18
49 46 40 40 38 34 32 29 27 24 22 18 16 14 14 14 16 18 18 17 17 16 13 11 11 11 10 11 11 12 14 16 16 15 16 17 18 17 15 13 15 16 18
49 46 41 38 37 34 31 28 25 21 18 15 12 13 15 17 17 15 15 15 14 13 11 9 9 9 8 7 7 9 10 13 15 14 13 12 11 10 13 11 11 12 15
49 46 42 39 38 35 30 26 22 18 15 13 13 14 15 16 14 12 11 8 6 5 4 2 1 1 1 3 2 3 3 4 9 11 10 9 6 7 8 11 11 7 8
49 47 42 39 37 33 29 24 19 15 13 11 11 11 13 13 11 7 4 1 2 4 5 6 7 7 6 5 5 4 4 4 4 4 3 3 3 3 7 10 11 10 7
48 45 42 38 36 31 23 20 18 14 12 9 9 9 8 6 3 0 2 4 6 7 8 10 9 8 8 9 8 8 9 9 10 8 8 4 2 3 7 9 11 10 11
46 42 38 36 34 30 24 16 15 12 9 9 8 7 5 3 2 2 3 3 4 5 6 8 9 9 7 8 8 8 10 11 13 13 10 8 7 8 5 5 6 11 12
45 39 34 33 31 29 25 18 13 10 8 9 7 5 4 3 2 2 2 3 3 3 3 4 5 5 5 7 8 8 9 11 12 15 12 12 9 8 6 7 9 9 12
41 38 34 31 30 29 25 20 15 13 11 8 6 4 3 3 4 5 5 6 6 6 7 7 8 7 7 7 8 8 10 10 11 17 17 15 14 13 13 14 14 11 15
45 39 34 32 30 29 28 22 17 14 13 10 7 6 5 4 4 5 5 7 7 9 8 9 9 8 9 8 8 11 11 12 13 16 18 20 22 22 20 19 18 16 16
46 41 36 33 30 27 23 20 18 17 15 12 11 11 7 2 1 4 8 9 9 10 15 10 9 8 6 11 11 8 10 11 11 10 11 15 19 22 22 19 17 17 21
46 43 37 34 33 29 24 20 18 17 16 14 15 13 7 5 2 8 12 16 16 15 16 12 11 11 13 11 13 9 6 6 7 10 10 11 11 14 18 16 14 15 22
44 43 40 37 34 31 27 22 20 19 16 17 17 12 10 6 5 11 14 16 16 17 15 11 11 11 8 7 8 6 4 2 5 6 7 10 12 13 14 16 22 18 18
46 40 40 39 37 33 29 26 22 19 17 18 15 11 9 10 11 15 15 17 12 13 11 8 12 12 12 12 8 6 5 4 6 9 10 11 13 15 14 14 13 15 20
43 40 39 39 38 35 31 27 23 21 19 17 17 14 8 8 13 15 16 13 14 13 8 10 10 15 14 13 8 8 8 5 5 5 4 5 9 10 8 7 9 13 16
38 39 38 38 35 34 32 29 27 23 19 17 16 13 14 17 16 18 16 14 14 12 8 10 13 15 14 11 5 6 6 4 7 10 4 1 6 11 10 9 8 11 13
34 34 38 37 35 35 34 31 30 24 21 20 17 15 18 20 22 15 12 10 9 9 6 12 12 13 12 10 6 6 5 1 6 12 11 5 4 6 10 10 11 15 13
37 35 34 37 41 36 33 33 28 24 21 21 18 16 12 16 12 8 6 8 8 6 7 13 9 15 14 15 10 9 5 5 7 9 11 5 1 6 10 12 13 15 17
41 37 36 39 36 40 35 31 28 26 25 22 18 15 13 8 12 12 9 11 12 9 10 1 9 16 15 16 14 10 7 5 8 8 2 2 6 9 12 16 19 19 19
45 43 40 38 38 36 37 36 33 33 31 28 25 20 15 13 11 10 11 10 12 11 7 8 11 18 17 15 10 13 2 9 10 9 3 8 11 14 15 17 21 23 23
51 51 49 45 45 44 43 43 41 40 36 31 24 24 19 16 14 11 11 13 12 10 14 8 15 18 12 9 10 10 7 3 8 8 13 16 17 18 20 21 25 28 29
59 56 55 53 48 49 49 46 44 36 32 32 27 26 21 22 16 13 12 14 14 12 11 12 17 14 2 6 7 8 2 4 4 11 16 14 16 20 25 27 27 30 29
62 62 62 59 52 47 51 51 47 44 37 35 32 28 26 23 21 19 17 18 14 11 8 7 4 4 4 6 6 4 4 4 15 9 14 11 15 18 23 27 27 28 27
60 55 60 61 62 53 52 55 53 43 35 29 32 30 24 22 22 18 17 16 14 11 9 8 6 10 8 5 9 9 8 6 4 10 17 20 19 23 26 26 27 29 28
67 60 56 56 61 62 55 56 54 49 38 32 37 33 26 18 16 20 19 21 20 20 17 17 11 11 11 11 10 12 11 10 10 12 17 19 24 23 24 26 27 29 31
66 67 62 54 54 58 58 55 55 51 42 39 43 40 29 22 19 15 18 23 23 14 15 20 22 18 15 13 16 17 14 12 18 19 22 26 27 27 26 27 25 27 31
Wind_Direction_500mb
156 147 146 141 145 148 146 144 140 133 125 122 120 124 117 110 108 108 114 120 127 128 118 117 109 103 94 86 84 89 94 118 135 128 128 117 121 119 124 126 138 135 133
153 153 157 151 150 153 151 145 140 137 130 125 120 121 115 112 107 108 107 104 104 112 116 110 97 91 88 87 82 87 92 106 118 114 108 118 121 121 119 129 135 148 141
157 155 159 156 155 153 151 145 139 134 130 124 124 122 117 111 111 111 106 99 94 97 97 91 88 86 88 90 93 86 99 104 113 113 113 119 123 122 136 126 136 151 155
157 153 158 157 155 152 149 147 145 140 133 134 134 128 121 118 119 116 110 95 87 88 91 81 47 65 95 97 104 132 121 121 114 116 111 116 136 137 156 166 156 156 157
156 152 155 156 156 153 149 149 149 148 146 140 144 131 127 124 120 111 99 55 303 304 306 296 288 286 275 258 235 220 222 234 189 165 192 192 194 212 172 180 172 167 173
158 156 157 159 163 162 154 155 154 152 168 166 141 141 141 135 138 208 288 288 299 302 305 305 302 293 285 270 263 261 251 244 256 240 266 247 198 192 199 186 185 183 196
161 162 161 164 171 177 172 167 173 176 177 176 170 169 181 216 229 271 299 312 322 322 323 311 303 303 309 302 289 281 269 254 247 249 243 249 227 227 221 242 220 196 199
163 171 167 170 175 180 186 185 181 180 178 181 188 211 219 213 132 78 39 18 11 348 316 302 303 312 308 300 303 313 306 289 272 256 242 245 249 236 234 243 248 226 203
175 175 177 179 183 188 189 190 195 193 191 202 223 220 166 109 72 51 32 25 1 343 338 327 326 329 321 318 318 309 295 297 274 269 259 255 251 255 260 253 240 234 225
192 190 189 188 191 194 194 197 200 202 207 211 203 162 129 94 62 40 20 8 336 319 325 327 333 329 335 322 295 296 302 294 285 276 270 261 256 258 264 279 257 249 245
190 194 195 196 196 197 204 211 214 212 216 211 185 165 154 137 78 6 353 335 322 314 324 328 341 343 337 329 331 316 290 281 287 285 289 278 266 260 258 267 262 256 254
192 194 195 196 195 198 206 219 226 229 226 209 182 177 184 172 164 334 336 332 328 322 324 322 327 321 315 319 306 294 317 306 307 283 290 302 299 279 269 256 276 270 259
193 197 197 196 197 202 210 216 224 227 218 202 196 197 208 203 325 313 335 327 326 335 328 325 344 347 345 342 335 309 282 317 338 348 347 323 319 310 305 281 267 275 291
198 199 201 202 203 204 208 210 212 210 203 199 205 218 222 237 279 294 319 324 336 337 343 355 354 345 323 313 302 309 305 340 346 24 12 341 334 324 299 282 298 282 287
200 198 201 202 203 204 203 202 196 193 199 208 222 225 217 265 270 283 297 303 330 318 320 338 348 342 332 328 301 288 286 255 218 104 40 356 353 336 301 293 282 284 285
193 198 198 201 200 202 199 190 184 182 192 212 221 226 238 267 286 285 281 296 323 314 317 331 334 347 323 321 318 314 305 263 202 187 163 89 51 50 47 23 344 297 287
189 192 195 192 193 193 190 182 186 196 205 217 233 244 273 281 283 287 273 296 321 317 314 335 333 344 341 335 321 324 339 82 197 192 197 171 107 57 44 31 17 4 335
199 196 192 193 196 186 187 193 201 208 215 221 238 252 268 292 285 277 285 300 321 309 302 319 338 339 317 332 326 290 305 220 190 162 199 230 328 6 5 12 10 5 358
210 204 200 201 198 201 203 206 211 216 219 221 236 244 280 282 287 282 277 275 297 287 315 331 335 343 341 332 346 323 270 200 180 176 103 326 305 326 338 348 354 355 357
220 218 212 215 215 211 214 216 221 225 225 226 234 248 277 284 272 280 267 288 284 271 300 273 317 336 332 337 341 20 156 198 192 189 287 313 338 330 327 335 336 344 351
224 228 225 221 224 224 227 230 232 235 233 233 239 246 261 266 267 271 269 273 291 283 289 326 308 315 304 314 327 325 348 248 220 247 276 289 305 316 321 323 327 337 342
226 226 230 231 231 231 233 236 239 247 246 241 249 238 260 261 256 254 250 262 270 286 308 316 316 318 251 291 330 318 313 264 303 281 306 308 308 307 312 315 321 324 334
234 235 233 233 232 235 237 239 241 245 247 242 230 228 239 249 249 241 243 243 266 267 285 314 339 38 321 330 314 331 333 3 350 357 354 332 325 323 318 318 315 316 323
225 236 243 242 238 236 238 238 238 237 242 235 222 226 228 243 244 236 238 233 234 229 265 309 313 291 278 305 327 325 321 330 340 325 326 335 333 334 330 318 315 318 317
235 234 239 239 240 235 236 238 237 237 240 227 220 219 229 231 238 239 247 255 260 261 262 269 287 294 290 286 309 319 317 308 315 317 319 319 326 340 337 334 324 318 314
236 238 238 233 231 227 229 232 233 236 239 233 226 219 225 230 255 267 260 249 259 260 263 265 263 269 283 291 295 298 297 295 306 316 309 319 319 320 326 330 329 327 318
Wind_Speed_850mb
42 40 40 44 45 40 32 32 30 28 25 22 20 18 17 16 14 16 15 14 14 13 12 12 11 10 9 9 10 13 13 12 13 14 13 13 16 14 17 17 15 17 18
49 46 40 40 38 34 32 29 27 24 22 18 16 14 14 14 16 18 18 17 17 16 13 11 11 11 10 11 11 12 14 16 16 15 16 17 18 17 15 13 15 16 18
49 46 41 38 37 34 31 28 25 21 18 15 12 13 15 17 17 15 15 15 14 13 11 9 9 9 8 7 7 9 10 13 15 14 13 12 11 10 13 11 11 12 15
49 46 42 39 38 35 30 26 22 18 15 13 13 14 15 16 14 12 11 8 6 5 4 2 1 1 1 3 2 3 3 4 9 11 10 9 6 7 8 11 11 7 8
49 47 42 39 37 33 29 24 19 15 13 11 11 11 13 13 11 7 4 1 2 4 5 6 7 7 6 5 5 4 4 4 4 4 3 3 3 3 7 10 11 10 7
48 45 42 38 36 31 23 20 18 14 12 9 9 9 8 6 3 0 2 4 6 7 8 10 9 8 8 9 8 8 9 9 10 8 8 4 2 3 7 9 11 10 11
46 42 38 36 34 30 24 16 15 12 9 9 8 7 5 3 2 2 3 3 4 5 6 8 9 9 7 8 8 8 10 11 13 13 10 8 7 8 5 5 6 11 12
45 39 34 33 31 29 25 18 13 10 8 9 7 5 4 3 2 2 2 3 3 3 3 4 5 5 5 7 8 8 9 11 12 15 12 12 9 8 6 7 9 9 12
41 38 34 31 30 29 25 20 15 13 11 8 6 4 3 3 4 5 5 6 6 6 7 7 8 7 7 7 8 8 10 10 11 17 17 15 14 13 13 14 14 11 15
45 39 34 32 30 29 28 22 17 14 13 10 7 6 5 4 4 5 5 7 7 9 8 9 9 8 9 8 8 11 11 12 13 16 18 20 22 22 20 19 18 16 16
46 41 36 33 30 27 23 20 18 17 15 12 11 11 7 2 1 4 8 9 9 10 15 10 9 8 6 11 11 8 10 11 11 10 11 15 19 22 22 19 17 17 21
46 43 37 34 33 29 24 20 18 17 16 14 15 13 7 5 2 8 12 16 16 15 16 12 11 11 13 11 13 9 6 6 7 10 10 11 11 14 18 16 14 15 22
44 43 40 37 34 31 27 22 20 19 16 17 17 12 10 6 5 11 14 16 16 17 15 11 11 11 8 7 8 6 4 2 5 6 7 10 12 13 14 16 22 18 18
46 40 40 39 37 33 29 26 22 19 17 18 15 11 9 10 11 15 15 17 12 13 11 8 12 12 12 12 8 6 5 4 6 9 10 11 13 15 14 14 13 15 20
43 40 39 39 38 35 31 27 23 21 19 17 17 14 8 8 13 15 16 13 14 13 8 10 10 15 14 13 8 8 8 5 5 5 4 5 9 10 8 7 9 13 16
38 39 38 38 35 34 32 29 27 23 19 17 16 13 14 17 16 18 16 14 14 12 8 10 13 15 14 11 5 6 6 4 7 10 4 1 6 11 10 9 8 11 13
34 34 38 37 35 35 34 31 30 24 21 20 17 15 18 20 22 15 12 10 9 9 6 12 12 13 12 10 6 6 5 1 6 12 11 5 4 6 10 10 11 15 13
37 35 34 37 41 36 33 33 28 24 21 21 18 16 12 16 12 8 6 8 8 6 7 13 9 15 14 15 10 9 5 5 7 9 11 5 1 6 10 12 13 15 17
41 37 36 39 36 40 35 31 28 26 25 22 18 15 13 8 12 12 9 11 12 9 10 1 9 16 15 16 14 10 7 5 8 8 2 2 6 9 12 16 19 19 19
45 43 40 38 38 36 37 36 33 33 31 28 25 20 15 13 11 10 11 10 12 11 7 8 11 18 17 15 10 13 2 9 10 9 3 8 11 14 15 17 21 23 23
51 51 49 45 45 44 43 43 41 40 36 31 24 24 19 16 14 11 11 13 12 10 14 8 15 18 12 9 10 10 7 3 8 8 13 16 17 18 20 21 25 28 29
59 56 55 53 48 49 49 46 44 36 32 32 27 26 21 22 16 13 12 14 14 12 11 12 17 14 2 6 7 8 2 4 4 11 16 14 16 20 25 27 27 30 29
62 62 62 59 52 47 51 51 47 44 37 35 32 28 26 23 21 19 17 18 14 11 8 7 4 4 4 6 6 4 4 4 15 9 14 11 15 18 23 27 27 28 27
60 55 60 61 62 53 52 55 53 43 35 29 32 30 24 22 22 18 17 16 14 11 9 8 6 10 8 5 9 9 8 6 4 10 17 20 19 23 26 26 27 29 28
67 60 56 56 61 62 55 56 54 49 38 32 37 33 26 18 16 20 19 21 20 20 17 17 11 11 11 11 10 12 11 10 10 12 17 19 24 23 24 26 27 29 31
66 67 62 54 54 58 58 55 55 51 42 39 43 40 29 22 19 15 18 23 23 14 15 20 22 18 15 13 16 17 14 12 18 19 22 26 27 27 26 27 25 27 31
Wind_Direction_850mb
156 147 146 141 145 148 146 144 140 133 125 122 120 124 117 110 108 108 114 120 127 128 118 117 109 103 94 86 84 89 94 118 135 128 128 117 121 119 124 126 138 135 133
153 153 157 151 150 153 151 145 140 137 130 125 120 121 115 112 107 108 107 104 104 112 116 110 97 91 88 87 82 87 92 106 118 114 108 118 121 121 119 129 135 148 141
157 155 159 156 155 153 151 145 139 134 130 124 124 122 117 111 111 111 106 99 94 97 97 91 88 86 88 90 93 86 99 104 113 113 113 119 123 122 136 126 136 151 155
157 153 158 157 155 152 149 147 145 140 133 134 134 128 121 118 119 116 110 95 87 88 91 81 47 65 95 97 104 132 121 121 114 116 111 116 136 137 156 166 156 156 157
156 152 155 156 156 153 149 149 149 148 146 140 144 131 127 124 120 111 99 55 303 304 306 296 288 286 275 258 235 220 222 234 189 165 192 192 194 212 172 180 172 167 173
158 156 157 159 163 162 154 155 154 152 168 166 141 141 141 135 138 208 288 288 299 302 305 305 302 293 285 270 263 261 251 244 256 240 266 247 198 192 199 186 185 183 196
161 162 161 164 171 177 172 167 173 176 177 176 170 169 181 216 229 271 299 312 322 322 323 311 303 303 309 302 289 281 269 254 247 249 243 249 227 227 221 242 220 196 199
163 171 167 170 175 180 186 185 181 180 178 181 188 211 219 213 132 78 39 18 11 348 316 302 303 312 308 300 303 313 306 289 272 256 242 245 249 236 234 243 248 226 203
175 175 177 179 183 188 189 190 195 193 191 202 223 220 166 109 72 51 32 25 1 343 338 327 326 329 321 318 318 309 295 297 274 269 259 255 251 255 260 253 240 234 225
192 190 189 188 191 194 194 197 200 202 207 211 203 162 129 94 62 40 20 8 336 319 325 327 333 329 335 322 295 296 302 294 285 276 270 261 256 258 264 279 257 249 245
190 194 195 196 196 197 204 211 214 212 216 211 185 165 154 137 78 6 353 335 322 314 324 328 341 343 337 329 331 316 290 281 287 285 289 278 266 260 258 267 262 256 254
192 194 195 196 195 198 206 219 226 229 226 209 182 177 184 172 164 334 336 332 328 322 324 322 327 321 315 319 306 294 317 306 307 283 290 302 299 279 269 256 276 270 259
193 197 197 196 197 202 210 216 224 227 218 202 196 197 208 203 325 313 335 327 326 335 328 325 344 347 345 342 335 309 282 317 338 348 347 323 319 310 305 281 267 275 291
198 199 201 202 203 204 208 210 212 210 203 199 205 218 222 237 279 294 319 324 336 337 343 355 354 345 323 313 302 309 305 340 346 24 12 341 334 324 299 282 298 282 287
200 198 201 202 203 204 203 202 196 193 199 208 222 225 217 265 270 283 297 303 330 318 320 338 348 342 332 328 301 288 286 255 218 104 40 356 353 336 301 293 282 284 285
193 198 198 201 200 202 199 190 184 182 192 212 221 226 238 267 286 285 281 296 323 314 317 331 334 347 323 321 318 314 305 263 202 187 163 89 51 50 47 23 344 297 287
189 192 195 192 193 193 190 182 186 196 205 217 233 244 273 281 283 287 273 296 321 317 314 335 333 344 341 335 321 324 339 82 197 192 197 171 107 57 44 31 17 4 335
199 196 192 193 196 186 187 193 201 208 215 221 238 252 268 292 285 277 285 300 321 309 302 319 338 339 317 332 326 290 305 220 190 162 199 230 328 6 5 12 10 5 358
210 204 200 201 198 201 203 206 211 216 219 221 236 244 280 282 287 282 277 275 297 287 315 331 335 343 341 332 346 323 270 200 180 176 103 326 305 326 338 348 354 355 357
220 218 212 215 215 211 214 216 221 225 225 226 234 248 277 284 272 280 267 288 284 271 300 273 317 336 332 337 341 20 156 198 192 189 287 313 338 330 327 335 336 344 351
224 228 225 221 224 224 227 230 232 235 233 233 239 246 261 266 267 271 269 273 291 283 289 326 308 315 304 314 327 325 348 248 220 247 276 289 305 316 321 323 327 337 342
226 226 230 231 231 231 233 236 239 247 246 241 249 238 260 261 256 254 250 262 270 286 308 316 316 318 251 291 330 318 313 264 303 281 306 308 308 307 312 315 321 324 334
234 235 233 233 232 235 237 239 241 245 247 242 230 228 239 249 249 241 243 243 266 267 285 314 339 38 321 330 314 331 333 3 350 357 354 332 325 323 318 318 315 316 323
225 236 243 242 238 236 238 238 238 237 242 235 222 226 228 243 244 236 238 233 234 229 265 309 313 291 278 305 327 325 321 330 340 325 326 335 333 334 330 318 315 318 317
235 234 239 239 240 235 236 238 237 237 240 227 220 219 229 231 238 239 247 255 260 261 262 269 287 294 290 286 309 319 317 308 315 317 319 319 326 340 337 334 324 318 314
236 238 238 233 231 227 229 232 233 236 239 233 226 219 225 230 255 267 260 249 259 260 263 265 263 269 283 291 295 298 297 295 306 316 309 319 319 320 326 330 329 327 318